FREGAT DEB, 45977

Orbit data source: Space-Track

FREGAT DEB, 45977 is space debris in LEO originally from a launch on Mon, 18 Jul 2011 UTC launched from the Tyuratam Missile And Space Complex (TTMTR). Debris objects in space refer to the collection of defunct objects orbiting the Earth. Examples of debris include non-operational satellites, rocket bodies, and fragments generated from explosions, collisions, or faulty payload assembly.

Loading next visibility...
Identifier
45977, 2011-037GJ
Orbit
LEO
Country
Flag of CISCIS
Related business
Manufacturer
Lavochkin
Mission
Spacecraft
Bus & Motor
Unknown
Mass
Unknown
Launch date (UTC)
2011-07-18 (14 years ago)
Launch vehicle
Unknown
Launch site
Tyuratam Missile And Space Complex (TTMTR)
Object type
Payload
Rocket body
Debris
Shape & HBR
Unknown shape, 0.1 m
Radar Cross Section
Small (<0.1 m²)

Expand to show TLE details & history
Last TLE update: 1 day ago

TLE from 1 day ago
0 FREGAT DEB
1 45977U 11037GJ  25290.35692858 -.00000071  00000-0  29281-5 0  9994
2 45977  51.5464   1.1989 1800560  42.5966 330.1216 10.67539184204106
Epoch: 2025-10-17T08:33Z
TLE epoch observation values (Epoch: 2025-10-17T08:33:58.629Z)
Latitude
-0.00004°
Longitude
-153.39888°
Altitude
1,064.675 km
Speed
7.835 km/s
True Right ascension
00h 04m 47s
True Declination
0° 00' 00"
Sunlit
Object was in full shadow at epoch
Visualization orbit readout
Latitude
Unknown
Longitude
Unknown
Altitude
Unknown
Speed
Unknown
Apparent Right ascension
Unknown
Apparent Declination
Unknown
Sunlit
N/A
Visualization observer readout
Local Sidereal Time
02:56:55
Azimuth
Unknown
Elevation
Unknown
Doppler factor
Unknown
Orbital elements
Apogee altitude
3,903.684 km
Perigee altitude
766.03 km
Semi-major axis
8,712.994 km
Eccentricity
0.18006
Inclination
51.5464°
RAAN
1.1989°
Arg. of periapsis
42.5966°
True anomaly
317.48675°
Mean anomaly
330.1216°
Eccentric anomaly
324.06759°
Mean motion
2.66865 °/min
Orbital period
134.9 mins
BSTAR
0.0000029281
Loading maneuver chart data...
Computing Atmospheric mass density...
Loading historical data...
Loading historical data...
Loading historical data...
Loading historical data...
Loading historical data...
Loading historical data...
Loading historical data...

Documentation

Showing up to 5 results
|